Location: ??????
(55.7522°N, 37.6156°E)
Time: 18:07:42
(UTC+00:00)

Cosmos 1140 Rocket - Pass Details

Date: 14 June 2025
Orbit: 741 x 762 km, 74.1° (Epoch: 12 July)

Event Time Altitude Azimuth Distance (km) Brightness Sun altitude
Exits shadow 20:47:00 - 212° (SSW) 2,692 5.9 -10.4°
Reaches altitude 10° 20:48:07 10° 213° (SSW) 2,262 5.5 -10.4°
Maximum altitude 20:53:14 76° 300° (WNW) 772 3.6 -10.6°
Drops below altitude 10° 20:58:23 10° 26° (NNE) 2,267 6.9 -10.7°
Sets 21:00:45 0° 28° (NNE) 3,193 7.7 -10.7°
